SCP
0 0 0 0 0 0 0 0 0 0 0 0 0 0 0 0 0 0 0 0 0 0 0 0 0 0 0 0 0 0 0 0 0 0 0 0 0 0 0 0 0 0 0
0 0 0 0 0 0 0 0 0 0 0 0 0 0 0 0 0 0 0 0 0 0 0 0 0 0 0 0 0 0 0 0 0 0 0 0 0 0 0 0 0 0 0
0 0 0 0 0 0 0 0 0 0 0 0 0 0 0 0 0 0 0 0 0 0 0 0 0 0 0 0 0 0 0 0 0 0 0 0 0 0 0 0 0 0 0
0 0 0 0 0 0 0 0 0 0 0 0 0 0 0 0 0 0 0 0 0 0 0 0 0 0 0 0 0 0 0 0 0 0 0 0 0 0 0 0 0 0 0
0 0 0 0 0 0 0 0 0 0 0 0 0 0 0 0 0 0 0 0 0 0 0 0 0 0 0 0 0 0 0 0 0 0 0 0 0 0 0 0 0 0 0
0 0 0 0 0 0 0 0 0 0 0 0 0 0 0 0 0 0 0 0 0 0 0 0 0 0 0 0 0 0 0 0 0 0 0 0 0 0 0 0 0 0 0
0 0 0 0 0 0 0 0 0 0 0 0 0 0 0 0 0 0 0 0 0 0 0 0 0 0 0 0 0 0 0 0 0 0 0 0 0 0 0 0 0 0 0
0 0 0 0 0 0 0 0 0 0 0 0 0 0 0 0 0 0 0 0 0 0 0 0 0 0 0 0 0 0 0 0 0 0 0 0 0 0 0 0 0 0 0
0 0 0 0 0 0 0 0 0 0 0 0 0 0 0 0 0 0 0 0 0 0 0 0 0 0 0 0 0 0 0 0 0 0 0 0 0 0 0 0 0 0 0
0 0 0 0 0 0 0 0 0 0 0 0 0 0 0 0 0 0 0 0 0 0 0 0 0 0 0 0 0 0 0 0 0 0 0 0 0 0 0 0 0 0 0
0 0 0 0 0 0 0 0 0 0 0 0 0 0 0 0 0 0 0 0 0 0 0 0 0 0 0 0 0 0 0 0 0 0 0 0 0 0 0 0 0 0 0
0 0 0 0 0 0 0 0 0 0 0 0 0 0 0 0 0 0 0 0 0 0 0 0 0 0 0 0 0 0 0 0 0 0 0 0 0 0 0 0 0 0 0
0 0 0 0 0 0 0 0 0 0 0 0 0 0 0 0 0 0 0 0 0 0 0 0 0 0 0 0 0 0 0 0 0 0 0 0 0 0 0 0 0 0 0
0 0 0 0 0 0 0 0 0 0 0 0 0 0 0 0 0 0 0 0 0 0 0 0 0 0 0 0 0 0 0 0 0 0 0 0 0 0 0 0 0 0 0
0 0 0 0 0 0 0 0 0 0 0 0 0 0 0 0 0 0 0 0 0 0 0 0 0 0 0 0 0 0 0 0 0 0 0 0 0 0 0 0 0 0 0
0 0 0 0 0 0 0 0 0 0 0 0 0 0 0 0 0 0 0 0 0 0 0 0 0 0 0 0 0 0 0 0 0 0 0 0 0 0 0 0 0 0 0
0 0 0 0 0 0 0 0 0 0 0 0 0 0 0 0 0 0 0 0 0 0 0 0 0 0 0 0 0 0 0 0 0 0 0 0 0 0 0 0 0 0 0
0 0 0 0 0 0 0 0 0 0 0 0 0 0 0 0 0 0 0 0 0 0 0 0 0 0 0 0 0 0 0 0 0 0 0 0 0 0 0 0 0 0 0
0 0 0 0 0 0 0 0 0 0 0 0 0 0 0 0 0 0 0 0 0 0 0 0 0 0 0 0 0 0 0 0 0 0 0 0 0 0 0 0 0 0 0
0 0 0 0 0 0 0 0 0 0 0 0 0 0 0 0 0 0 0 0 0 0 0 0 0 0 0 0 0 0 0 0 0 0 0 0 0 0 0 0 0 0 0
0 0 0 0 0 0 0 0 0 0 0 0 0 0 0 0 0 0 0 0 0 0 0 0 0 0 0 0 0 0 0 0 0 0 0 0 0 0 0 0 0 0 0
0 0 0 0 0 0 0 0 0 0 0 0 0 0 0 0 0 0 0 0 0 0 0 0 0 0 0 0 0 0 0 0 0 0 0 0 0 0 0 0 0 0 0
0 0 0 0 0 0 0 0 0 0 0 0 0 0 0 0 0 0 0 0 0 0 0 0 0 0 0 0 0 0 0 0 0 0 0 0 0 0 0 0 0 0 0
0 0 0 0 0 0 0 0 0 0 0 0 0 0 0 0 0 0 0 0 0 0 0 0 0 0 0 0 0 0 0 0 0 0 0 0 0 0 0 0 0 0 0
0 0 0 0 0 0 0 0 0 0 0 0 0 0 0 0 0 0 0 0 0 0 0 0 0 0 0 0 0 0 0 0 0 0 0 0 0 0 0 0 0 0 0
0 0 0 0 0 0 0 0 0 0 0 0 0 0 0 0 0 0 0 0 0 0 0 0 0 0 0 0 0 0 0 0 0 0 0 0 0 0 0 0 0 0 0
Wind_Speed
2 3 7 8 8 9 11 11 11 11 11 11 11 11 11 11 11 11 11 10 10 10 9 9 8 8 8 8 9 8 8 8 8 8 8 7 7 6 6 7 6 5 7
4 4 8 8 7 8 11 12 11 10 11 11 11 10 11 10 10 10 10 9 9 9 9 8 7 8 8 8 8 8 7 7 7 8 7 6 6 6 6 6 7 5 7
5 4 7 8 8 9 12 11 10 10 10 10 10 10 10 10 9 9 8 8 8 8 7 7 6 7 7 7 7 7 7 6 7 7 6 4 4 6 6 6 6 6 7
5 4 5 8 8 9 10 10 10 10 9 9 9 9 9 9 8 8 8 7 7 7 6 6 6 6 6 6 6 6 5 5 6 6 3 3 3 5 5 5 5 6 7
4 3 4 9 9 9 9 9 9 9 9 9 8 8 8 8 8 7 7 7 6 6 6 5 5 5 5 4 4 4 5 5 5 4 2 3 2 5 6 6 6 6 6
3 3 4 9 9 8 8 8 9 8 8 8 8 7 7 7 7 6 6 6 5 5 5 5 5 5 5 4 4 4 4 5 4 2 3 3 3 5 6 6 6 6 6
3 2 3 8 9 9 8 8 8 8 8 8 7 6 6 6 6 6 5 5 5 5 5 5 5 4 4 4 4 4 4 5 3 3 3 3 4 7 7 7 6 6 6
4 2 2 7 8 8 8 9 8 8 7 7 6 6 5 5 5 4 4 4 5 5 5 5 5 4 5 5 4 5 5 5 4 4 3 4 6 8 7 7 7 7 7
3 2 1 2 4 7 8 8 8 7 7 6 5 5 5 4 4 3 3 3 3 4 4 5 5 5 5 5 5 5 6 6 3 3 4 4 7 8 8 7 7 7 7
3 2 2 2 2 2 3 6 7 7 6 5 5 4 4 3 2 2 2 3 3 3 3 4 5 5 5 5 5 6 6 5 3 3 3 4 8 8 8 8 7 7 7
3 1 2 1 1 1 2 3 4 5 5 4 3 3 2 0 0 1 2 3 3 3 4 4 4 4 4 4 4 5 4 2 3 3 2 5 7 7 7 7 7 7 7
4 3 2 2 2 1 1 2 1 1 1 1 1 1 1 1 1 1 3 3 4 3 3 3 4 3 2 1 2 3 1 2 2 2 3 7 7 8 7 6 6 8 8
4 3 3 2 2 2 1 1 1 1 1 1 1 1 1 1 1 1 1 2 2 2 1 2 2 1 0 1 1 1 1 1 2 2 4 7 7 7 8 7 7 7 8
3 4 3 3 2 2 1 1 1 1 0 0 0 0 0 0 1 1 1 1 1 1 1 1 1 1 1 1 1 2 2 2 2 2 3 7 7 7 8 8 8 8 7
4 4 3 3 3 2 2 1 1 1 1 1 0 0 1 0 0 1 1 1 1 1 0 1 1 1 1 1 1 2 2 2 3 3 2 5 6 7 7 8 7 8 8
5 5 4 4 4 3 2 2 1 1 1 1 1 1 1 1 1 1 1 1 1 1 0 0 1 1 1 1 1 2 2 2 2 2 2 3 5 6 7 7 7 7 8
6 5 5 5 4 4 3 2 1 1 1 1 1 1 1 1 1 1 0 1 1 1 0 0 0 0 1 1 1 1 1 1 1 1 1 1 2 4 5 6 7 8 8
5 5 5 5 5 4 3 2 1 1 1 1 1 1 1 2 2 1 1 1 1 0 0 0 0 1 1 1 1 1 1 0 0 0 0 1 1 2 3 5 6 7 8
6 6 5 4 5 4 4 2 2 1 1 1 1 1 1 1 1 1 1 1 0 0 0 0 0 0 0 1 1 1 1 1 1 1 1 1 1 1 2 3 5 6 6
5 5 5 4 4 4 3 2 1 1 0 0 0 1 1 1 1 1 1 1 0 0 0 0 0 0 0 1 1 1 1 1 0 1 1 1 1 1 2 2 2 3 5
5 4 4 5 4 4 2 2 2 1 1 1 1 1 1 1 1 1 1 0 0 0 1 1 0 0 1 0 1 1 2 1 0 1 1 1 1 1 1 2 2 2 2
6 5 4 5 4 4 3 2 2 2 1 1 1 0 0 1 1 1 1 1 0 0 0 0 1 1 0 1 1 1 2 3 2 1 1 1 1 1 2 2 2 2 2
6 6 6 5 4 4 3 2 2 2 1 1 1 1 1 0 1 1 1 1 1 1 1 1 1 2 1 0 1 2 1 1 2 2 1 1 1 1 2 2 2 2 3
6 5 5 5 4 4 4 3 4 3 2 2 1 1 1 1 0 0 1 1 1 1 1 2 1 1 2 1 1 1 2 2 1 2 2 1 2 2 3 3 3 3 3
5 5 5 5 4 4 3 4 4 2 2 1 0 0 1 1 0 0 0 0 0 1 1 1 1 1 2 2 2 1 1 1 2 2 3 2 2 2 3 3 3 3 3
5 5 5 5 4 4 5 4 4 3 2 2 1 0 1 1 1 1 0 0 0 1 1 2 2 2 2 2 2 2 2 2 2 3 3 3 3 3 3 3 3 3 3
Wind_Direction
178 181 165 152 148 154 151 139 134 133 131 131 131 132 136 137 139 140 142 143 145 145 145 145 145 147 144 144 146 150 150 148 146 146 146 146 145 144 148 156 159 153 151
155 162 154 147 144 139 144 138 134 132 131 132 130 130 135 138 138 141 143 146 145 144 143 144 150 150 150 150 154 159 160 159 157 155 155 152 150 151 157 160 163 162 159
135 144 147 144 137 128 131 134 134 131 132 133 131 131 134 137 140 141 142 144 144 144 147 152 157 155 159 163 166 167 170 171 168 165 159 148 155 164 169 165 168 166 165
131 129 140 145 141 139 138 138 136 135 137 137 134 134 135 137 140 144 144 145 145 147 152 163 167 165 168 172 172 175 178 182 180 175 155 155 168 173 175 177 178 179 173
122 126 152 144 142 141 141 142 142 142 142 140 137 137 137 139 143 147 146 148 153 157 165 171 176 174 176 177 184 189 192 194 189 177 153 161 172 182 186 190 186 183 181
115 124 156 145 144 144 146 145 147 148 147 142 140 142 144 144 146 149 151 157 165 174 178 180 182 182 182 185 193 201 203 205 199 166 163 172 183 198 196 195 190 182 181
126 135 161 149 150 152 154 151 149 151 150 145 146 149 150 149 154 157 162 173 182 189 190 191 193 190 190 193 200 208 205 209 187 174 179 187 199 204 206 200 192 185 181
134 140 156 157 155 155 156 155 156 154 151 149 154 161 161 157 157 162 175 187 197 202 199 200 205 205 204 207 210 213 212 214 209 195 193 199 209 210 210 205 200 196 192
115 114 110 133 150 157 157 156 158 154 152 155 163 166 166 166 169 176 185 199 211 216 212 216 220 218 215 215 220 221 220 219 207 195 205 201 209 211 212 213 212 207 205
104 100 97 96 101 124 148 159 158 153 156 159 169 176 172 174 182 203 208 228 237 234 233 236 235 230 228 227 225 227 228 225 214 205 210 209 214 218 222 223 221 217 211
148 136 127 128 114 117 142 162 153 154 157 161 174 176 165 57 346 267 259 260 266 266 252 250 248 247 244 245 238 233 236 213 209 218 217 221 220 221 225 223 219 218 216
185 179 166 164 152 142 159 127 118 139 135 125 85 68 54 39 318 295 291 286 283 275 270 262 261 265 270 293 280 257 229 215 218 225 226 227 225 224 224 222 217 218 220
187 186 178 178 170 163 155 131 113 99 87 62 64 57 57 26 333 336 337 321 320 313 319 321 327 318 302 264 275 256 227 235 232 234 232 231 230 230 227 223 221 220 224
178 199 187 172 170 179 170 160 149 146 148 182 273 319 111 38 348 331 335 323 333 331 335 337 334 323 313 300 286 272 253 241 239 236 237 238 234 234 233 225 221 222 225
188 198 195 180 178 176 171 197 178 183 193 214 226 240 180 174 265 300 311 322 317 327 314 316 319 316 307 293 269 261 264 261 250 238 246 244 238 236 238 230 224 225 228
194 197 192 189 183 172 183 193 193 186 192 196 224 232 199 189 206 231 284 317 310 295 248 259 284 286 294 286 285 269 261 271 262 241 239 249 247 241 240 235 232 234 234
191 191 190 190 177 178 192 194 185 182 174 192 223 230 210 194 198 194 205 294 299 305 320 64 323 341 321 318 305 296 269 263 263 268 252 241 250 252 247 239 240 240 238
177 177 188 188 171 173 179 175 166 171 173 198 211 214 215 203 187 174 178 275 293 314 128 169 24 8 346 328 303 310 314 300 271 228 265 258 247 258 256 251 251 247 244
172 171 174 173 164 170 169 158 152 153 164 187 187 198 224 213 183 170 197 264 289 106 233 246 94 144 310 317 300 332 337 317 291 255 233 231 227 241 249 259 257 258 251
163 167 169 162 157 153 143 129 119 122 143 134 201 217 211 205 183 174 187 246 174 88 348 332 82 68 269 307 335 359 337 310 305 277 248 234 221 230 234 242 252 265 254
156 164 172 165 163 155 152 159 164 197 200 201 228 233 224 200 180 165 206 158 122 177 240 232 160 78 15 38 57 354 341 326 312 270 265 251 256 256 243 238 242 248 259
169 170 173 175 172 175 174 159 159 159 182 201 265 316 265 207 197 180 172 190 197 213 279 237 148 150 263 98 118 46 346 344 347 330 285 247 265 268 258 250 244 241 255
178 179 181 184 181 172 160 126 103 81 54 31 348 316 307 252 202 187 179 186 197 195 231 241 196 184 212 230 147 151 166 257 311 312 284 271 271 266 267 261 250 251 255
191 181 182 175 176 172 158 154 154 159 178 213 220 259 307 312 255 195 182 190 209 211 231 249 220 203 188 226 218 202 204 187 204 305 315 294 278 269 269 265 258 252 251
183 170 171 167 166 159 165 173 169 173 185 179 123 34 331 334 327 309 147 129 249 239 244 257 245 215 204 210 210 204 216 219 208 220 277 297 293 268 259 255 254 257 256
170 160 162 165 168 163 167 177 177 177 169 150 148 182 317 333 334 333 108 152 245 253 254 250 240 225 223 218 219 212 205 204 211 210 238 265 278 279 264 253 249 253 254